Regional Weather Roundup
Issued by NWS Jackson, KY

Home | Current Version | Previous Version | Graphics & Text | Print | Product List | Glossary On
Versions: 1 2 3 4 5 6 7 8 9 10 11 12 13 14 15 16 17 18 19 20 21 22 23 24 25 26 27 28 29 30 31 32 33 34 35 36 37 38 39 40 41 42 43 44 45 46 47 48 49 50
000
ASUS43 KJKL 290010
RWRJKL

EAST KENTUCKY HOURLY WEATHER ROUNDUP
NATIONAL WEATHER SERVICE JACKSON KY
800 PM EDT SAT MAR 28 2015

NOTE: "FAIR" INDICATES FEW OR NO CLOUDS BELOW 12,000 FEET WITH
NO SIGNIFICANT WEATHER AND/OR OBSTRUCTIONS TO VISIBILITY.

* THESE REPORTS ARE NOT UNDER NWS QUALITY CONTROL AND MAY NOT
  REPORT WEATHER SUCH AS PRECIPITATION AND FOG.

KYZ079-080-083-085-087-088-110-112-115-119-120-290100
...EASTERN KENTUCKY...

CITY           SKY/WX    TMP DP  RH WIND       PRES   REMARKS
JACKSON        CLEAR     32   8  36 N3        30.25R
6HR MIN TEMP:  32; 6HR MAX TEMP:  39;

LONDON         CLEAR     36   9  32 NE7       30.25R WCI  30
6HR MIN TEMP:  36; 6HR MAX TEMP:  42;

SOMERSET*      CLEAR     34  12  40 NE6       30.28S WCI  29
MONTICELLO*    CLEAR     37  17  44 N6        30.29R WCI  32
6HR MIN TEMP:  38; 6HR MAX TEMP:  44;

MIDDLESBORO*   CLEAR     38  12  34 N12       30.24R WCI  30
6HR MIN TEMP:  38; 6HR MAX TEMP:  43;

HAZARD APT*    CLEAR     34  10  37 N5        30.25R WCI  30
BLACK MTN*       N/A     19  18  93 N5          N/A  WCI  13
PIKEVILLE APT* CLEAR     32   9  37 N6        30.23R WCI  26
BIG SANDY*     CLEAR     34   8  33 N5        30.24S WCI  30
6HR MIN TEMP:  34; 6HR MAX TEMP:  39;

MOREHEAD APT*  CLEAR     32  10  40 N6        30.30S WCI  26
$$

KYZ035-036-041-042-044-050-067-078-099-290100
...CENTRAL KENTUCKY...

CITY           SKY/WX    TMP DP  RH WIND       PRES   REMARKS
MT STERLING*   CLEAR     34  12  40 N3        30.29S
FLEMING/MASON* CLEAR     32  12  43 NE5       30.31R WCI  27
DANVILLE*      CLEAR     34  18  51 N5        30.28R WCI  30
RICHMOND*      CLEAR     36  12  38 N5        30.27R WCI  32
LEXINGTON      CLEAR     34  12  40 N6        30.27S WCI  29
6HR MIN TEMP:  34; 6HR MAX TEMP:  41;

FRANKFORT      CLEAR     37  11  34 NW3       30.27R
6HR MIN TEMP:  36; 6HR MAX TEMP:  41;

$$

KYZ091>093-OHZ055-061-077-WVZ005-015-034-035-042-290100
...SOUTHERN OHIO/WEST VIRGINIA...

CITY           SKY/WX    TMP DP  RH WIND       PRES   REMARKS
COVINGTON      CLEAR     34   9  35 N7        30.29R WCI  28
COLUMBUS       CLEAR     28  12  51 N7        30.30R WCI  21
DAYTON         CLEAR     30  14  51 N6        30.31R WCI  24
WILMINGTON     CLEAR     30  12  47 N6        30.29R WCI  24
HUNTINGTON     CLEAR     32   7  35 N5        30.28R WCI  27
CHARLESTON     CLEAR     31   5  33 NW5       30.25R WCI  26
PINEVILLE*     CLEAR     32  10  39 MISG      30.25R
BECKLEY        CLEAR     25   4  40 NW10      30.15R WCI  15
BLUEFIELD      CLEAR     27   4  37 NW14G22   30.13R WCI  16
$$

VAZ002-007-008-TNZ017-027-036-066-071-290100
...SOUTHWEST VIRGINIA/EAST TENNESSEE...

CITY           SKY/WX    TMP DP  RH WIND       PRES   REMARKS
WISE*          CLEAR     32   5  32 NW7       30.16R WCI  26
JONESVILLE*    CLEAR     36   9  32 CALM      30.24R
ABINGDON*      CLEAR     35   5  28 N3        30.17R
BRISTOL        PTCLDY    34   9  35 N8        30.19R WCI  27
KNOXVILLE      CLEAR     42  10  27 N10       30.21R
OAK RIDGE      CLEAR     43   8  23 VRB6      30.24R
CROSSVILLE     CLEAR     38   9  30 N7        30.21R WCI  33
NASHVILLE      CLEAR     42  12  29 NE9       30.27R
$$

...KEY TO REMARKS...
VSB - VISIBILITY IN MILES
WCI - WIND CHILL INDEX
HX  - HEAT INDEX

$$



USA.gov is the U.S. government's official web portal to all federal, state and local government web resources and services.